Ames, IA

9:18 AM CDT on April 23, 2018 (GMT -0500)
Ames Municipal

Weather History for KAMW - September, 2013

Change the Weather History Date:

Monday, September 16, 2013

  Actual Average Record
Temperature  
Mean Temperature 59 °F 63 °F  
Max Temperature 68 °F 76 °F 87 °F (2015)
Min Temperature 50 °F 50 °F 35 °F (2000)
Degree Days  
Heating Degree Days 6 4  
Month to date heating degree days 25 39  
Since 1 July heating degree days 39 55  
Cooling Degree Days 0 2  
Month to date cooling degree days 108 44  
Year to date cooling degree days 857 727  
Growing Degree Days 8 (Base 50)    
Moisture  
Dew Point 51 °F    
Average Humidity 76    
Maximum Humidity 96    
Minimum Humidity 56    
Precipitation  
Precipitation 0.00 in 0.10 in 0.95 in (2001)
Month to date precipitation 0.36 1.78  
Sea Level Pressure  
Sea Level Pressure 30.31 in    
Wind  
Wind Speed 5 mph (East)    
Max Wind Speed 13 mph    
Max Gust Speed 15 mph    
Visibility 10 miles    
Events      
T = Trace of Precipitation, MM = Missing Value Source: NWS Daily Summary

Daily Weather History Graph

Daily Weather History Graph

Search for Another Location

Airport or City:

Astronomy

Sep. 16, 2013 Rise Set
Actual Time 6:55 AM CDT 7:21 PM CDT
Civil Twilight 6:27 AM CDT 7:49 PM CDT
Nautical Twilight 5:54 AM CDT 8:22 PM CDT
Astronomical Twilight 5:20 AM CDT 8:56 PM CDT
Moon 5:33 PM CDT (9/16) 3:40 AM CDT (9/16)
Length of Visible Light 13h 21m
Length of Day
12h 25m
Waxing Gibbous, 90% of the Moon is Illuminated
Sep 16
Waxing Gibbous
Sep 19
Full
Sep 26
Last Quarter
Oct 4
New
Oct 11
First Quarter

Hourly Weather History & Observations

Time (CDT) Temp. Dew Point Humidity Pressure Visibility Wind Dir Wind Speed Gust Speed Precip Events Conditions
12:53 AM 54.0 °F 51.1 °F 90% 30.25 in 10.0 mi NNE 4.6 mph - N/A   Clear
1:53 AM 55.0 °F 51.1 °F 86% 30.26 in 10.0 mi NNE 5.8 mph - N/A   Clear
2:53 AM 53.1 °F 51.1 °F 93% 30.27 in 10.0 mi NNE 4.6 mph - N/A   Clear
3:53 AM 52.0 °F 50.0 °F 93% 30.27 in 10.0 mi NNE 4.6 mph - N/A   Clear
4:53 AM 53.1 °F 51.1 °F 93% 30.28 in 10.0 mi NE 5.8 mph - N/A   Overcast
5:53 AM 55.0 °F 52.0 °F 89% 30.30 in 10.0 mi ENE 5.8 mph - N/A   Overcast
6:53 AM 55.0 °F 52.0 °F 89% 30.32 in 10.0 mi East 4.6 mph - N/A   Overcast
7:48 AM 55.4 °F 53.6 °F 94% 30.34 in 10.0 mi Calm Calm - N/A   Overcast
7:53 AM 55.9 °F 52.0 °F 87% 30.33 in 10.0 mi East 3.5 mph - N/A   Overcast
8:02 AM 55.4 °F 51.8 °F 88% 30.34 in 10.0 mi ENE 3.5 mph - N/A   Overcast
8:53 AM 55.9 °F 53.1 °F 90% 30.34 in 10.0 mi ENE 6.9 mph - N/A   Overcast
9:53 AM 57.0 °F 53.1 °F 87% 30.36 in 10.0 mi SE 5.8 mph - N/A   Overcast
10:05 AM 57.2 °F 53.6 °F 88% 30.37 in 10.0 mi ESE 5.8 mph - N/A   Overcast
10:53 AM 61.0 °F 54.0 °F 78% 30.36 in 10.0 mi ESE 6.9 mph - N/A   Overcast
11:33 AM 60.8 °F 53.6 °F 77% 30.37 in 10.0 mi East 6.9 mph - N/A   Overcast
11:53 AM 62.1 °F 53.1 °F 72% 30.36 in 10.0 mi ESE 9.2 mph - N/A   Overcast
12:53 PM 64.0 °F 53.1 °F 67% 30.35 in 10.0 mi East 6.9 mph - N/A   Overcast
1:24 PM 64.4 °F 51.8 °F 64% 30.35 in 10.0 mi Variable 6.9 mph - N/A   Mostly Cloudy
1:34 PM 64.4 °F 51.8 °F 64% 30.35 in 10.0 mi East 9.2 mph - N/A   Mostly Cloudy
1:53 PM 66.0 °F 52.0 °F 60% 30.34 in 10.0 mi SSE 9.2 mph - N/A   Overcast
2:02 PM 64.4 °F 51.8 °F 64% 30.34 in 10.0 mi SE 10.4 mph - N/A   Overcast
2:53 PM 64.0 °F 51.1 °F 63% 30.32 in 10.0 mi ESE 8.1 mph - N/A   Overcast
3:09 PM 64.4 °F 50.0 °F 59% 30.32 in 10.0 mi ESE 4.6 mph - N/A   Overcast
3:53 PM 64.9 °F 50.0 °F 58% 30.29 in 10.0 mi East 9.2 mph - N/A   Overcast
4:53 PM 64.9 °F 48.9 °F 56% 30.27 in 10.0 mi SE 6.9 mph - N/A   Overcast
5:53 PM 63.0 °F 48.9 °F 60% 30.26 in 10.0 mi SE 6.9 mph - N/A   Clear
6:53 PM 60.1 °F 50.0 °F 69% 30.25 in 10.0 mi SSE 5.8 mph - N/A   Clear
7:53 PM 57.0 °F 51.1 °F 81% 30.25 in 10.0 mi SSE 4.6 mph - N/A   Clear
8:53 PM 55.0 °F 50.0 °F 83% 30.25 in 10.0 mi SE 3.5 mph - N/A   Clear
9:53 PM 52.0 °F 48.9 °F 89% 30.26 in 10.0 mi Calm Calm - N/A   Clear
10:53 PM 51.1 °F 48.9 °F 92% 30.27 in 10.0 mi Calm Calm - N/A   Scattered Clouds
11:53 PM 51.1 °F 48.9 °F 92% 30.27 in 10.0 mi Calm Calm - N/A   Partly Cloudy